Zurück zum Katalog

COSMOS 1818 COOLANT

LostLEO
NORAD 36947·DEBRIS·🇷🇺 Russia

Gestartet Feb 1, 1987 von Baikonur Cosmodrome

Loading…

Nächste Überflüge (nächste 24 Stunden)

TLE

VeraltetSource: Space-Track

Epoche: Feb 28, 2023, 09:06 UTC

1 36947U 87011AB  23059.37984856  .00001530  00000-0  56970-3 0  9994
2 36947  65.0094 334.9715 0013592 284.3157  75.6420 14.35107477509543

Verfolge COSMOS 1818 COOLANT in Echtzeit mit AllMySat

Download on the App Store